[[{"header":{"parameterUnit":"m.s-1","parameterCategory":2,"la1":30.2991,"la2":30.254,"lo1":-89.0895,"lo2":-89.0444,"dy":0.0017,"dx":0.0017,"nx":28,"ny":28,"refTime":"2023-07-18T03:00:00:Z","depth":"0","parameterNumber":2,"parameterNumberName":"U-component_of_CURRENTS"},"data":[0,0,0,0,0,0,0,0,0,0,0,0,0,0,0,0,0,0,0,0,0,0,0,0,0,0,0,0,0,0,0,0,0,0,0,0,0,0,0,0,0,0,0,0,0,0,0,0,0,0,0,0,0,0,0,0,0,0,0.3567,0.3568,0,0.363,0.363,0.363,0.3546,0.3544,0.3542,0.354,0.3595,0.3599,0.3602,0,0,0,0,0,0,0,0,0,0,0,0,0,0.3298,0.3303,0.3567,0.3569,0.357,0.363,0.363,0.363,0.3547,0.3544,0.3541,0.3539,0.3594,0.3598,0.3602,0,0,0,0,0,0,0,0,0,0,0,0,0,0.3386,0.3305,0.3567,0.3542,0.3541,0.363,0.363,0.363,0.3547,0.3544,0.354,0.3537,0.3592,0.3598,0.3603,0.3705,0,0,0.362,0.3622,0,0,0,0,0,0,0,0,0.3381,0.3395,0.3544,0.3544,0.3543,0.3584,0.3556,0.3658,0.3548,0.3536,0.354,0.3536,0.3599,0.3603,0.3611,0.3707,0.371,0.362,0.3623,0.3626,0.3627,0,0,0,0,0,0,0,0.3375,0.3392,0.3584,0.3546,0.3545,0.3502,0.351,0.3574,0.3579,0.3537,0.3533,0.3554,0.3596,0.3606,0.3612,0.3711,0.362,0.3625,0.3628,0.363,0.3929,0.3933,0,0,0,0,0,0,0.3393,0.3387,0.3582,0.3586,0.3461,0.351,0.3519,0.3567,0.3579,0.358,0.3557,0.355,0.3599,0.3606,0.3614,0.3706,0.3626,0.3631,0.3634,0.3924,0.393,0.3935,0,0,0,0,0,0,0.3388,0.3411,0.3579,0.3492,0.3511,0.352,0.3574,0.3571,0.3588,0.3596,0.3593,0.3579,0.3596,0.3606,0.3683,0.3708,0.3633,0.3638,0.3919,0.3926,0.3932,0.3909,0,0,0,0,0,0,0.338,0.3409,0.346,0.3495,0.3517,0.3675,0.3578,0.3575,0.361,0.3601,0.3615,0.3615,0.3594,0.3676,0.3689,0.3714,0.3642,0.3913,0.3922,0.393,0.3904,0.3915,0.3924,0,0,0,0,0,0.3371,0.3467,0.3463,0.3487,0.3585,0.368,0.3689,0.3674,0.3615,0.3666,0.3648,0.3615,0.3741,0.3684,0.3698,0.3725,0.3908,0.3919,0.3929,0.39,0.3913,0.3923,0,0,0,0,0,0,0.3392,0.347,0.3465,0.3584,0.3644,0.367,0.3719,0.3699,0.3725,0.3702,0.3674,0.3678,0.3761,0.3779,0.3717,0.3851,0.3823,0.3836,0.3795,0.3808,0.3817,0.378,0.3647,0,0,0,0,0,0.3423,0.3507,0.3568,0.3668,0.3697,0.3707,0.3742,0.3735,0.3759,0.3764,0.3759,0.3777,0.3823,0.3838,0.3895,0.3969,0.3973,0.4007,0.4016,0.4023,0.4013,0.4073,0.4084,0.397,0.3969,0.3969,0,0,0.3461,0.3516,0.3564,0.3676,0.3705,0.3748,0.3719,0.3792,0.38,0.3774,0.3791,0.3828,0.3862,0.3928,0.3967,0.3933,0.4061,0.4037,0.4041,0.4027,0.4085,0.4095,0.4104,0.3977,0.3975,0.3974,0,0,0.3546,0.3625,0.3693,0.3744,0.3813,0.3821,0.3848,0.3883,0.3877,0.3932,0.3901,0.3951,0.402,0.4025,0.404,0.416,0.4128,0.4194,0.4181,0.4239,0.4246,0.4253,0.4252,0.4259,0.4175,0.4175,0.4175,0,0.3576,0.3669,0.3734,0.379,0.3819,0.3847,0.3887,0.391,0.3955,0.3948,0.3945,0.4021,0.4057,0.4096,0.4125,0.4171,0.4182,0.4109,0.4242,0.4249,0.4256,0.4254,0.4261,0.4175,0.4175,0.4175,0.4175,0,0.3674,0.3745,0.3798,0.3853,0.3902,0.397,0.3989,0.402,0.4008,0.4,0.406,0.4109,0.4137,0.4175,0.4175,0.4246,0.4229,0.4253,0.4182,0.4264,0.4259,0.4267,0.4175,0.4175,0.4175,0.4175,0,0,0.3726,0.3839,0.3848,0.3863,0.3934,0.3976,0.4005,0.4033,0.4014,0.4071,0.4055,0.4152,0.4157,0.4182,0.4206,0.4246,0.4305,0.426,0.4263,0.4206,0.439,0.417,0.4157,0.4342,0.4344,0.4346,0.4356,0,0.3764,0.3865,0.3899,0.3955,0.3998,0.4015,0.4025,0.4045,0.4055,0.4057,0.41,0.4126,0.4165,0.4176,0.4232,0.4295,0.433,0.4297,0.4367,0.4368,0.4119,0.4161,0.3863,0.3829,0.4363,0.4365,0.4366,0,0.3811,0.3874,0.3946,0.3976,0.3989,0.4005,0.4003,0.4024,0.4032,0.4036,0.4065,0.409,0.4151,0.4188,0.4306,0.428,0.434,0.4383,0.4385,0.4187,0.4163,0.3848,0.3823,0.3734,0.4378,0.4377,0.4376,0,0.3796,0.3881,0.3932,0.3957,0.401,0.4003,0.4005,0.4008,0.3998,0.402,0.4008,0.4083,0.4111,0.4218,0.4294,0.4316,0.4401,0.4446,0.4299,0.4283,0.4044,0.4001,0.3889,0.4543,0.4543,0.4543,0.4543,0,0.3822,0.3848,0.3925,0.3961,0.3955,0.3989,0.3964,0.397,0.3968,0.3937,0.3996,0.3988,0.4128,0.4176,0.4275,0.4268,0.4392,0.4281,0.4272,0.4027,0.3985,0.3909,0.3907,0.4543,0.4543,0.4543,0.4543,0,0.3797,0.3864,0.3907,0.3963,0.3958,0.3951,0.3922,0.3897,0.3913,0.3879,0.3882,0.3926,0.3961,0.4052,0.4191,0.4196,0.4091,0.4227,0.3883,0.3831,0.3563,0.3572,0.3316,0.326,0.4051,0.4045,0.4041,0,0.3795,0.3832,0.3893,0.3892,0.3908,0.3895,0.3861,0.3863,0.3829,0.3828,0.3797,0.3813,0.3795,0.3849,0.383,0.3869,0.3874,0.3625,0.3616,0.3472,0.3481,0.3394,0.3366,0.3305,0.3295,0.3287,0.328,0,0.3783,0.381,0.3863,0.3841,0.3816,0.3774,0.3732,0.3699,0.3688,0.3656,0.3612,0.3606,0.3568,0.3417,0.3398,0.3411,0.3362,0.345,0.3419,0.2956,0.274,0.2705,0.3362,0.3205,0.3213,0.3218,0.3222,0.3225,0.3759,0.3761,0.3804,0.3756,0.3722,0.362,0.3527,0.3489,0.3404,0.3286,0.3398,0.3261,0.3111,0.3003,0.2976,0.2677,0.2854,0.2598,0.2643,0.2587,0.2433,0.2872,0.2632,0.2636,0.2639,0.2642,0.2645,0,0.367,0.3679,0.3681,0.36,0.3489,0.35,0.3392,0.326,0.3099,0.3038,0.297,0.2693,0.2474,0.2351,0.2057,0.1926,0.1892,0.1869,0.1732,0.1779,0.2253,0.212,0.161,0.161,0.161,0.1611,0.1611,0.1611,0.3629,0.3592,0.3574,0.3367,0.3296,0.3066,0.2976,0.2822,0.2711,0.2422,0.22,0.2151,0.1999,0.168,0.1422,0.1374,0.1365,0.1134,0.136,0.1733,0.1807,0.1878,0.1753,0.1175,0.1175,0.0735,0.0732,0.0729]},{"header":{"parameterUnit":"m.s-1","parameterCategory":2,"la1":30.2991,"la2":30.254,"lo1":-89.0895,"lo2":-89.0444,"dy":0.0017,"dx":0.0017,"nx":28,"ny":28,"refTime":"2023-07-18T03:00:00:Z","depth":"0","parameterNumber":3,"parameterNumberName":"V-component_of_CURRENTS"},"data":[0,0,0,0,0,0,0,0,0,0,0,0,0,0,0,0,0,0,0,0,0,0,0,0,0,0,0,0,0,0,0,0,0,0,0,0,0,0,0,0,0,0,0,0,0,0,0,0,0,0,0,0,0,0,0,0,0,0,0.0395,0.0396,0,0.0492,0.0494,0.0495,0.0532,0.0531,0.0531,0.053,0.0646,0.0649,0.0653,0,0,0,0,0,0,0,0,0,0,0,0,0,0.0313,0.0314,0.0395,0.0396,0.0397,0.0492,0.0494,0.0495,0.0532,0.0531,0.0531,0.053,0.0645,0.0649,0.0653,0,0,0,0,0,0,0,0,0,0,0,0,0,0.0375,0.0314,0.0395,0.0425,0.0428,0.0492,0.0494,0.0496,0.0532,0.0531,0.053,0.053,0.0643,0.0649,0.0654,0.0703,0,0,0.067,0.0673,0,0,0,0,0,0,0,0,0.0372,0.0378,0.0419,0.0423,0.0427,0.0497,0.0507,0.0565,0.0532,0.0495,0.053,0.0529,0.0597,0.0606,0.0629,0.0708,0.0713,0.0671,0.0674,0.0676,0.0678,0,0,0,0,0,0,0,0.0367,0.0375,0.0436,0.042,0.0425,0.0458,0.0466,0.0519,0.0552,0.0498,0.0501,0.0508,0.0599,0.0624,0.0632,0.0715,0.0671,0.0675,0.0679,0.0681,0.0813,0.0813,0,0,0,0,0,0,0.0347,0.0371,0.0433,0.0439,0.0394,0.046,0.0468,0.0477,0.0551,0.056,0.0508,0.0509,0.0615,0.0626,0.0636,0.07,0.0676,0.0681,0.0684,0.0812,0.0813,0.0813,0,0,0,0,0,0,0.0345,0.0352,0.0429,0.0405,0.0416,0.0461,0.0471,0.048,0.0504,0.0558,0.0568,0.0523,0.0615,0.0629,0.0683,0.0704,0.0684,0.0689,0.0812,0.0813,0.0813,0.0826,0,0,0,0,0,0,0.0343,0.0351,0.0357,0.0403,0.0417,0.0478,0.0472,0.0482,0.0508,0.051,0.0574,0.0584,0.0616,0.0675,0.0689,0.0711,0.0693,0.0812,0.0812,0.0813,0.0825,0.0827,0.0828,0,0,0,0,0,0.0339,0.0365,0.0357,0.0365,0.0422,0.0479,0.0491,0.0521,0.0509,0.0536,0.0565,0.0582,0.0687,0.0681,0.0696,0.0721,0.0811,0.0812,0.0813,0.0825,0.0827,0.0828,0,0,0,0,0,0,0.0323,0.0372,0.0364,0.0398,0.0433,0.0485,0.0518,0.0521,0.0566,0.0566,0.06,0.0613,0.0664,0.0688,0.0679,0.0756,0.0747,0.0751,0.0751,0.0753,0.0755,0.08,0.0697,0,0,0,0,0,0.032,0.0363,0.0392,0.0421,0.0439,0.0471,0.0496,0.0513,0.0554,0.0572,0.0606,0.0641,0.0681,0.0712,0.0751,0.0807,0.0823,0.0826,0.0828,0.0829,0.0874,0.0907,0.0917,0.0815,0.0815,0.0815,0,0,0.0321,0.0354,0.0375,0.0422,0.0453,0.0495,0.0487,0.0534,0.0566,0.0579,0.0636,0.0652,0.0694,0.0749,0.0774,0.0774,0.0854,0.083,0.0831,0.0877,0.0909,0.0919,0.0928,0.0816,0.0816,0.0816,0,0,0.036,0.0372,0.0421,0.0452,0.0498,0.0522,0.0529,0.0573,0.0594,0.0641,0.065,0.069,0.0744,0.0791,0.0816,0.0855,0.0856,0.0841,0.0902,0.0931,0.0941,0.0949,0.0931,0.0938,0.0848,0.0848,0.0848,0,0.0354,0.0411,0.0443,0.0491,0.0519,0.053,0.0573,0.0605,0.0656,0.0691,0.066,0.0757,0.0776,0.0869,0.0869,0.0865,0.0858,0.089,0.0935,0.0945,0.0953,0.0933,0.0941,0.0849,0.0849,0.0849,0.0849,0,0.0429,0.0465,0.0499,0.056,0.0596,0.064,0.0672,0.0709,0.0714,0.0746,0.0819,0.0843,0.0912,0.0898,0.0898,0.0973,0.0935,0.0926,0.0934,0.0965,0.094,0.0948,0.085,0.085,0.0849,0.0849,0,0,0.0438,0.0532,0.0542,0.0575,0.0632,0.0673,0.0732,0.0804,0.0863,0.0886,0.0969,0.1008,0.102,0.1051,0.1048,0.1067,0.1084,0.1021,0.1022,0.1009,0.111,0.1088,0.1093,0.1073,0.1075,0.1077,0.1049,0,0.0481,0.0576,0.0613,0.0691,0.0736,0.0769,0.0832,0.0896,0.0938,0.102,0.1054,0.1121,0.1077,0.1103,0.1123,0.1111,0.1114,0.1091,0.108,0.108,0.1063,0.1107,0.108,0.1055,0.1056,0.1058,0.1059,0,0.0544,0.0595,0.0677,0.0766,0.079,0.0836,0.0945,0.1004,0.1117,0.1152,0.123,0.1253,0.1318,0.125,0.1272,0.1252,0.1194,0.1159,0.1157,0.1157,0.1076,0.1035,0.107,0.1059,0.1071,0.107,0.1069,0,0.0555,0.0647,0.0713,0.0739,0.0835,0.0884,0.094,0.1049,0.1122,0.1242,0.1302,0.138,0.1413,0.1392,0.1325,0.1298,0.1315,0.1268,0.1192,0.1187,0.1181,0.1172,0.1225,0.1279,0.128,0.128,0.128,0,0.0601,0.0654,0.0722,0.0758,0.0844,0.0904,0.1018,0.1088,0.1211,0.1319,0.1371,0.1457,0.1447,0.1454,0.1378,0.1322,0.1358,0.1235,0.1204,0.1176,0.1168,0.1172,0.1174,0.1278,0.1279,0.1279,0.1279,0,0.0617,0.0668,0.0735,0.0819,0.0854,0.0913,0.1047,0.1141,0.1238,0.1379,0.1418,0.1519,0.1531,0.1493,0.1451,0.1385,0.1327,0.1285,0.1232,0.1198,0.113,0.1133,0.1167,0.122,0.1221,0.1221,0.1221,0,0.0645,0.0677,0.0756,0.0803,0.0841,0.0938,0.1025,0.1143,0.1244,0.1417,0.149,0.155,0.162,0.1561,0.1453,0.1345,0.1311,0.123,0.1199,0.1162,0.1143,0.1121,0.1164,0.1159,0.1158,0.1158,0.1157,0,0.0666,0.0682,0.0732,0.0817,0.0898,0.1004,0.1126,0.1208,0.1362,0.1475,0.1614,0.1682,0.1643,0.157,0.1431,0.1339,0.1255,0.1213,0.1211,0.1156,0.1106,0.1128,0.1103,0.1152,0.1152,0.1153,0.1153,0.1153,0.0666,0.0695,0.0757,0.084,0.094,0.107,0.1157,0.1292,0.1449,0.1638,0.1688,0.1793,0.1674,0.1508,0.1392,0.1179,0.1226,0.1111,0.1127,0.1113,0.1168,0.112,0.1119,0.112,0.112,0.112,0.112,0,0.0659,0.0707,0.0787,0.0896,0.1001,0.1062,0.1233,0.133,0.1493,0.1672,0.1793,0.1788,0.1657,0.147,0.1199,0.1111,0.1089,0.1068,0.1044,0.1104,0.108,0.1082,0.1033,0.1033,0.1033,0.1033,0.1033,0.1033,0.0666,0.0723,0.0772,0.0932,0.1018,0.1157,0.1252,0.1391,0.1529,0.1712,0.1782,0.1858,0.1748,0.1323,0.1101,0.1057,0.1084,0.1014,0.1097,0.1062,0.1067,0.1072,0.1075,0.1026,0.1026,0.111,0.111,0.1111]}],[{"header":{"parameterUnit":"m.s-1","parameterCategory":2,"la1":30.2991,"la2":30.254,"lo1":-89.0895,"lo2":-89.0444,"dy":0.0017,"dx":0.0017,"nx":28,"ny":28,"refTime":"2023-07-18T03:00:00:Z","depth":"2","parameterNumber":2,"parameterNumberName":"U-component_of_CURRENTS"},"data":[0,0,0,0,0,0,0,0,0,0,0,0,0,0,0,0,0,0,0,0,0,0,0,0,0,0,0,0,0,0,0,0,0,0,0,0,0,0,0,0,0,0,0,0,0,0,0,0,0,0,0,0,0,0,0,0,0,0,0.2693,0.2694,0,0.2815,0.2817,0.2819,0.285,0.2849,0.2847,0.2846,0.2936,0.294,0.2944,0,0,0,0,0,0,0,0,0,0,0,0,0,0.2472,0.2476,0.2693,0.2694,0.2694,0.2814,0.2817,0.282,0.2851,0.2849,0.2847,0.2845,0.2935,0.2939,0.2944,0,0,0,0,0,0,0,0,0,0,0,0,0,0.2587,0.2478,0.2693,0.2717,0.272,0.2814,0.2817,0.282,0.2851,0.2849,0.2846,0.2844,0.2933,0.2939,0.2945,0.3031,0,0,0.2963,0.2965,0,0,0,0,0,0,0,0,0.2581,0.2597,0.2713,0.2716,0.2719,0.2806,0.2772,0.2886,0.2852,0.2812,0.2846,0.2843,0.2885,0.2895,0.2938,0.3035,0.3039,0.2963,0.2967,0.297,0.2971,0,0,0,0,0,0,0,0.2573,0.2591,0.2751,0.2714,0.2717,0.2716,0.2731,0.2794,0.2868,0.2815,0.2815,0.2814,0.2888,0.2932,0.294,0.304,0.2963,0.2968,0.2972,0.2974,0.3254,0.3258,0,0,0,0,0,0,0.2543,0.2585,0.2747,0.2754,0.2631,0.2721,0.2738,0.2789,0.2868,0.2875,0.2816,0.2815,0.2923,0.2933,0.2943,0.3112,0.2969,0.2975,0.2978,0.3251,0.3255,0.326,0,0,0,0,0,0,0.2539,0.2559,0.2742,0.266,0.2682,0.2727,0.2783,0.2792,0.2859,0.2867,0.2875,0.2873,0.2922,0.2934,0.2982,0.3113,0.2978,0.2983,0.3246,0.3252,0.3257,0.341,0,0,0,0,0,0,0.2533,0.2558,0.262,0.266,0.2685,0.2832,0.2785,0.2796,0.2855,0.2856,0.2919,0.2924,0.2921,0.2973,0.2988,0.3118,0.2988,0.3241,0.3249,0.3256,0.34,0.342,0.3438,0,0,0,0,0,0.2526,0.2611,0.2624,0.2643,0.2759,0.2834,0.2851,0.2876,0.286,0.2923,0.2915,0.2923,0.3032,0.2979,0.2997,0.3132,0.3238,0.3247,0.3255,0.3392,0.3416,0.3437,0,0,0,0,0,0,0.2539,0.2622,0.2637,0.2743,0.2796,0.2836,0.2898,0.2905,0.2958,0.2975,0.2948,0.2954,0.3077,0.3063,0.3005,0.3233,0.315,0.3162,0.3248,0.3272,0.329,0.3224,0.2993,0,0,0,0,0,0.2572,0.2683,0.2718,0.2819,0.2838,0.2877,0.2919,0.2955,0.2984,0.3009,0.3039,0.3076,0.3132,0.3155,0.3226,0.3319,0.328,0.3424,0.3443,0.3459,0.3417,0.3482,0.3502,0.3288,0.3288,0.3288,0,0,0.2597,0.2669,0.2725,0.2833,0.2876,0.2905,0.2902,0.3006,0.3056,0.3013,0.3112,0.3168,0.3176,0.3297,0.3351,0.3291,0.3503,0.347,0.3483,0.3431,0.3493,0.3513,0.3531,0.3294,0.3293,0.3292,0,0,0.2678,0.2773,0.2859,0.2899,0.299,0.3007,0.3035,0.3114,0.3182,0.3275,0.3269,0.3354,0.3445,0.3473,0.3486,0.3643,0.3623,0.3715,0.3736,0.3803,0.382,0.3834,0.3814,0.3825,0.3697,0.3698,0.3698,0,0.272,0.2808,0.2894,0.2949,0.2973,0.3034,0.3073,0.3155,0.3252,0.331,0.3327,0.3475,0.3521,0.3593,0.3654,0.3692,0.3683,0.365,0.3825,0.3838,0.385,0.3826,0.3837,0.3706,0.3705,0.3704,0.3703,0,0.2802,0.2873,0.2923,0.3003,0.3053,0.3129,0.3189,0.3306,0.3386,0.3438,0.3603,0.3663,0.3716,0.3803,0.3768,0.3899,0.3852,0.3866,0.3759,0.388,0.3848,0.3856,0.3718,0.3715,0.3712,0.371,0,0,0.2919,0.297,0.2995,0.2995,0.3094,0.3131,0.3256,0.3355,0.342,0.358,0.3652,0.3808,0.3848,0.3862,0.3897,0.395,0.4062,0.3937,0.3937,0.3899,0.415,0.3812,0.3787,0.4118,0.412,0.4122,0.4093,0,0.2963,0.3013,0.3059,0.3096,0.3096,0.3192,0.3273,0.3394,0.3513,0.3616,0.3738,0.3824,0.3865,0.3914,0.3988,0.4048,0.4089,0.4062,0.4049,0.4046,0.3719,0.3788,0.3529,0.3454,0.41,0.4101,0.4102,0,0.3016,0.3043,0.3069,0.3098,0.3116,0.3168,0.3303,0.3398,0.3559,0.3655,0.3765,0.3826,0.3927,0.396,0.4084,0.4067,0.4108,0.4146,0.4147,0.3764,0.3721,0.344,0.3443,0.4114,0.4113,0.4112,0.4111,0,0.2994,0.3045,0.3057,0.3067,0.3123,0.321,0.3279,0.3436,0.3528,0.3673,0.3725,0.3845,0.391,0.4007,0.408,0.41,0.4184,0.4224,0.3945,0.3921,0.365,0.3593,0.4304,0.4304,0.4304,0.4304,0.4304,0,0.2998,0.3015,0.3052,0.3056,0.3132,0.3188,0.3305,0.342,0.3547,0.3612,0.3731,0.3778,0.3936,0.3996,0.407,0.3984,0.4179,0.3912,0.3889,0.3691,0.3641,0.4171,0.4156,0.4303,0.4303,0.4303,0.4303,0,0.2979,0.299,0.3012,0.3079,0.3121,0.3195,0.3323,0.3379,0.3507,0.3597,0.3631,0.3747,0.3786,0.3877,0.4,0.391,0.3909,0.3843,0.3534,0.3467,0.36,0.3595,0.3497,0.3485,0.3475,0.3466,0.3459,0,0.2971,0.2969,0.3036,0.3066,0.3121,0.3215,0.3275,0.3394,0.3432,0.356,0.3574,0.363,0.3602,0.3571,0.3467,0.3406,0.3677,0.3089,0.3052,0.3529,0.3519,0.3529,0.3537,0.2793,0.278,0.2771,0.2763,0,0.2943,0.2976,0.2959,0.3042,0.3108,0.317,0.3254,0.3257,0.3361,0.339,0.3411,0.339,0.328,0.3025,0.2858,0.2824,0.3057,0.2866,0.3519,0.298,0.2846,0.2842,0.2878,0.2674,0.2683,0.269,0.2694,0.2698,0.291,0.2906,0.2889,0.2986,0.3053,0.3106,0.309,0.3096,0.3099,0.3026,0.3101,0.2902,0.2822,0.2347,0.2259,0.2169,0.2381,0.231,0.2351,0.2401,0.2268,0.2117,0.1781,0.1784,0.1787,0.179,0.1793,0,0.283,0.2828,0.2845,0.2892,0.2927,0.3042,0.3039,0.2926,0.2827,0.2695,0.2588,0.2132,0.1865,0.1871,0.1545,0.1421,0.1545,0.1408,0.1617,0.1699,0.1773,0.1622,0.0958,0.0956,0.0954,0.0952,0,0,0.2737,0.2699,0.2713,0.2748,0.2824,0.2789,0.2769,0.2596,0.2432,0.2066,0.1834,0.1731,0.1735,0.1314,0.1228,0.1068,0.1407,0.1014,0.1675,0.2004,0.2078,0.2258,0.2106,0,0,0,0,0]},{"header":{"parameterUnit":"m.s-1","parameterCategory":2,"la1":30.2991,"la2":30.254,"lo1":-89.0895,"lo2":-89.0444,"dy":0.0017,"dx":0.0017,"nx":28,"ny":28,"refTime":"2023-07-18T03:00:00:Z","depth":"2","parameterNumber":3,"parameterNumberName":"V-component_of_CURRENTS"},"data":[0,0,0,0,0,0,0,0,0,0,0,0,0,0,0,0,0,0,0,0,0,0,0,0,0,0,0,0,0,0,0,0,0,0,0,0,0,0,0,0,0,0,0,0,0,0,0,0,0,0,0,0,0,0,0,0,0,0,-0.0296,-0.0296,0,-0.0223,-0.0221,-0.0218,-0.0101,-0.0101,-0.01,-0.01,0.0041,0.0044,0.0047,0,0,0,0,0,0,0,0,0,0,0,0,0,-0.0227,-0.0228,-0.0295,-0.0296,-0.0297,-0.0223,-0.0221,-0.0218,-0.0101,-0.0101,-0.01,-0.0099,0.004,0.0043,0.0047,0,0,0,0,0,0,0,0,0,0,0,0,0,-0.0199,-0.0228,-0.0295,-0.0243,-0.0239,-0.0224,-0.022,-0.0217,-0.0101,-0.0101,-0.01,-0.0099,0.0038,0.0043,0.0048,0.0063,0,0,0.0063,0.0065,0,0,0,0,0,0,0,0,-0.0201,-0.0199,-0.025,-0.0247,-0.0242,-0.0186,-0.0146,-0.0126,-0.0101,-0.0135,-0.01,-0.0099,-0.0041,-0.003,0.0007,0.007,0.0076,0.0063,0.0066,0.0068,0.007,0,0,0,0,0,0,0,-0.0203,-0.0201,-0.0248,-0.0251,-0.0247,-0.0188,-0.0182,-0.014,-0.0078,-0.0132,-0.0127,-0.0148,-0.0036,0.0002,0.0011,0.0078,0.0063,0.0068,0.0071,0.0073,0.0181,0.0181,0,0,0,0,0,0,-0.0255,-0.0204,-0.0251,-0.0248,-0.024,-0.0192,-0.0184,-0.019,-0.0079,-0.0068,-0.0149,-0.0143,-0.0007,0.0005,0.0016,0.0125,0.0068,0.0073,0.0076,0.0181,0.0181,0.0181,0,0,0,0,0,0,-0.0253,-0.0259,-0.0254,-0.0239,-0.0237,-0.0197,-0.0202,-0.019,-0.014,-0.0097,-0.008,-0.0114,-0.0006,0.0009,0.0043,0.0127,0.0075,0.008,0.0181,0.0181,0.0181,0.0287,0,0,0,0,0,0,-0.0251,-0.0258,-0.0264,-0.0243,-0.024,-0.0236,-0.0205,-0.0189,-0.0164,-0.0154,-0.0062,-0.0048,-0.0004,0.0035,0.0048,0.0133,0.0084,0.0182,0.0181,0.0181,0.0284,0.0291,0.0297,0,0,0,0,0,-0.0248,-0.0251,-0.0264,-0.0271,-0.0255,-0.0237,-0.0227,-0.0184,-0.0163,-0.0134,-0.0096,-0.005,0.0045,0.0039,0.0054,0.0143,0.0182,0.0181,0.0181,0.0281,0.0289,0.0296,0,0,0,0,0,0,-0.0241,-0.0242,-0.0254,-0.0264,-0.0259,-0.0224,-0.0199,-0.0184,-0.0125,-0.0102,-0.0059,-0.0043,0.0019,0.0037,0.0028,0.0162,0.0125,0.0127,0.0195,0.0203,0.0209,0.0245,0.0088,0,0,0,0,0,-0.0251,-0.0224,-0.0252,-0.025,-0.0256,-0.0229,-0.0215,-0.0183,-0.0149,-0.0118,-0.0065,-0.0015,0.0029,0.0076,0.0109,0.0184,0.018,0.0245,0.0251,0.0257,0.0289,0.0335,0.0351,0.0181,0.0181,0.0181,0,0,-0.0255,-0.0246,-0.024,-0.0244,-0.0226,-0.0226,-0.021,-0.0174,-0.0128,-0.0116,-0.0021,0.0002,0.0039,0.0124,0.0158,0.016,0.0289,0.0257,0.0263,0.0292,0.0337,0.0354,0.037,0.0181,0.0181,0.0181,0,0,-0.0235,-0.024,-0.0219,-0.0218,-0.0207,-0.0193,-0.0193,-0.0154,-0.0083,-0.0025,-0.0003,0.006,0.0131,0.0198,0.0231,0.0284,0.03,0.0292,0.0399,0.0443,0.0459,0.0474,0.0442,0.0452,0.0325,0.0325,0.0325,0,-0.0244,-0.0228,-0.0212,-0.0204,-0.0201,-0.019,-0.0181,-0.0116,-0.0058,0.0026,0.0015,0.0153,0.0181,0.0305,0.0328,0.0314,0.0302,0.0379,0.0458,0.0472,0.0485,0.045,0.046,0.033,0.0329,0.0329,0.0328,0,-0.0214,-0.0215,-0.02,-0.0184,-0.0174,-0.0152,-0.0116,-0.0032,0.0034,0.0102,0.0245,0.0283,0.0383,0.0396,0.0389,0.051,0.0454,0.0443,0.0454,0.051,0.0466,0.0475,0.0337,0.0335,0.0334,0.0333,0,0,-0.0193,-0.0183,-0.0176,-0.017,-0.0154,-0.0136,-0.0037,0.0067,0.0191,0.0269,0.0431,0.0505,0.0555,0.059,0.0603,0.0652,0.0709,0.0601,0.06,0.0594,0.0754,0.0678,0.0679,0.0719,0.0722,0.0724,0.067,0,-0.0174,-0.0158,-0.0145,-0.0124,-0.0126,-0.0065,0.0029,0.0143,0.0275,0.0439,0.0543,0.0663,0.0621,0.069,0.0737,0.0729,0.0746,0.0721,0.0678,0.0676,0.0626,0.0694,0.066,0.0607,0.0679,0.068,0.0681,0,-0.0138,-0.0133,-0.0121,-0.0066,-0.0054,-0.0021,0.0171,0.0269,0.0499,0.0617,0.0773,0.0832,0.0948,0.0882,0.0925,0.0911,0.0843,0.0807,0.0804,0.0717,0.0621,0.0569,0.0621,0.0696,0.0695,0.0694,0.0693,0,-0.0109,-0.0098,-0.0076,-0.0075,-0.0026,0.0063,0.0141,0.0349,0.0506,0.0746,0.0873,0.0999,0.1087,0.106,0.0999,0.0973,0.0999,0.0952,0.0801,0.079,0.0748,0.073,0.0953,0.0953,0.0953,0.0953,0.0953,0,-0.0081,-0.0062,-0.0053,-0.0049,0.0056,0.0095,0.0289,0.0429,0.0656,0.0854,0.0965,0.1117,0.1138,0.1161,0.1061,0.0973,0.1049,0.0839,0.0802,0.0772,0.0757,0.0831,0.0817,0.0951,0.0951,0.0952,0.0952,0,-0.0056,-0.0056,-0.003,0.0022,0.0066,0.0156,0.0356,0.0524,0.071,0.0975,0.105,0.1231,0.1262,0.1216,0.1172,0.1056,0.0966,0.0888,0.0814,0.0771,0.0695,0.0687,0.074,0.0737,0.0735,0.0733,0.0732,0,-0.0031,-0.0034,0.0016,0.0081,0.0114,0.0251,0.0386,0.0567,0.0745,0.1039,0.117,0.1278,0.1368,0.1264,0.1095,0.0914,0.0915,0.0734,0.0692,0.0731,0.0688,0.0683,0.0679,0.0643,0.0641,0.0639,0.0638,0,-0.0019,-0.0011,-0.0007,0.0124,0.0246,0.0401,0.0592,0.0713,0.0953,0.1139,0.136,0.1437,0.136,0.1208,0.0965,0.0833,0.0775,0.069,0.0812,0.0699,0.0636,0.0594,0.0594,0.0622,0.0624,0.0625,0.0626,0.0626,-0.0009,0.0009,0.0033,0.0177,0.0346,0.0567,0.0697,0.0872,0.1104,0.1376,0.1419,0.1489,0.1345,0.1008,0.0827,0.0622,0.0637,0.054,0.0548,0.0557,0.0554,0.049,0.0444,0.0445,0.0445,0.0445,0.0446,0,0.0003,0.0024,0.0121,0.03,0.052,0.0615,0.086,0.098,0.121,0.136,0.1506,0.1301,0.1134,0.0953,0.0612,0.043,0.0442,0.0386,0.0437,0.0451,0.0464,0.0459,0.0323,0.0322,0.0322,0.0321,0,0,0.0004,0.0043,0.0096,0.0423,0.061,0.0877,0.102,0.1154,0.1254,0.1367,0.1371,0.1395,0.1141,0.0879,0.0665,0.0483,0.0511,0.045,0.0558,0.0656,0.0672,0.0551,0.0559,0,0,0,0,0]}],[{"header":{"parameterUnit":"m.s-1","parameterCategory":2,"la1":30.2991,"la2":30.254,"lo1":-89.0895,"lo2":-89.0444,"dy":0.0017,"dx":0.0017,"nx":28,"ny":28,"refTime":"2023-07-18T03:00:00:Z","depth":"4","parameterNumber":2,"parameterNumberName":"U-component_of_CURRENTS"},"data":[0,0,0,0,0,0,0,0,0,0,0,0,0,0,0,0,0,0,0,0,0,0,0,0,0,0,0,0,0,0,0,0,0,0,0,0,0,0,0,0,0,0,0,0,0,0,0,0,0,0,0,0,0,0,0,0,0,0,-0.0033,-0.0031,0,0.014,0.0142,0.0144,0.0303,0.0305,0.0307,0.0309,0.0367,0.0367,0.0366,0,0,0,0,0,0,0,0,0,0,0,0,0,0.0054,0.005,-0.0034,-0.0031,-0.0029,0.014,0.0142,0.0145,0.0303,0.0305,0.0308,0.031,0.0367,0.0367,0.0366,0,0,0,0,0,0,0,0,0,0,0,0,0,0.0098,0.0048,-0.0034,0.0072,0.0083,0.014,0.0142,0.0145,0.0302,0.0305,0.0308,0.0311,0.0367,0.0367,0.0366,0.0301,0,0,0.0365,0.0364,0,0,0,0,0,0,0,0,0.0095,0.0094,0.0054,0.0064,0.0077,0.0205,0.0195,0.0192,0.0301,0.0217,0.0309,0.0313,0.0301,0.0306,0.0331,0.0303,0.0306,0.0364,0.0364,0.0364,0.0364,0,0,0,0,0,0,0,0.0091,0.009,0.0034,0.0056,0.007,0.0208,0.0214,0.0197,0.0236,0.0225,0.0237,0.0258,0.0307,0.0331,0.0333,0.0307,0.0364,0.0364,0.0364,0.0363,0.0406,0.0408,0,0,0,0,0,0,0.0054,0.0084,0.0028,0.0039,0.0096,0.0202,0.021,0.0159,0.0239,0.0256,0.0255,0.0265,0.0331,0.0334,0.0336,0.0426,0.0364,0.0363,0.0363,0.0405,0.0406,0.0408,0,0,0,0,0,0,0.0053,0.0044,0.0021,0.0073,0.008,0.0195,0.0139,0.0161,0.0213,0.0264,0.0279,0.0287,0.0333,0.0336,0.0372,0.0423,0.0363,0.0363,0.0403,0.0405,0.0407,0.05,0,0,0,0,0,0,0.0054,0.0041,-0.001,0.0066,0.0075,0.0065,0.0137,0.0162,0.022,0.0235,0.0294,0.0303,0.0336,0.0373,0.0372,0.0421,0.0362,0.0401,0.0404,0.0407,0.0495,0.0505,0.0514,0,0,0,0,0,0.0055,-0.001,-0.0016,-0.0021,-0.0002,0.0065,0.0082,0.0178,0.0218,0.0236,0.0301,0.0302,0.0391,0.0373,0.0371,0.0422,0.04,0.0403,0.0406,0.0491,0.0503,0.0513,0,0,0,0,0,0,0.0004,0.0001,-0.0002,-0.007,-0.0009,0.0093,0.0126,0.0172,0.0237,0.0262,0.0305,0.0317,0.0379,0.0366,0.0346,0.0442,0.0399,0.0402,0.0464,0.0476,0.0485,0.047,0.0362,0,0,0,0,0,-0.0044,-0.0093,-0.0052,-0.0099,-0.0069,0.0019,0.0058,0.012,0.0191,0.0226,0.0297,0.0348,0.0382,0.0402,0.0436,0.0457,0.0437,0.0492,0.0501,0.0509,0.0496,0.054,0.0552,0.0419,0.0419,0.0419,0,0,-0.0076,-0.008,-0.011,-0.0111,-0.0048,-0.0005,0.0053,0.012,0.0174,0.0211,0.0329,0.0379,0.0394,0.0465,0.0488,0.0465,0.0531,0.0513,0.052,0.0502,0.0545,0.0558,0.0569,0.0421,0.0421,0.042,0,0,-0.0103,-0.0164,-0.0179,-0.0141,-0.0065,-0.0014,-0.0,0.0121,0.0196,0.0278,0.0342,0.041,0.0478,0.0522,0.0534,0.0588,0.0582,0.062,0.0653,0.0698,0.0709,0.0719,0.0687,0.0693,0.0622,0.0623,0.0623,0,-0.0119,-0.0173,-0.0162,-0.0136,-0.0097,-0.0023,0.0014,0.0083,0.0216,0.0283,0.0326,0.0483,0.0498,0.0561,0.0612,0.0608,0.0622,0.0615,0.0711,0.0721,0.0729,0.0694,0.0699,0.0627,0.0627,0.0626,0.0626,0,-0.0137,-0.0167,-0.0153,-0.0124,-0.0085,-0.004,0.0048,0.0129,0.0227,0.0321,0.0455,0.0518,0.0621,0.0638,0.0643,0.0725,0.0709,0.0723,0.0684,0.0748,0.0706,0.071,0.0634,0.0633,0.0631,0.063,0,0,-0.0171,-0.017,-0.0159,-0.0137,-0.0076,-0.0027,0.0046,0.0152,0.0241,0.0382,0.0518,0.0591,0.0687,0.0704,0.0747,0.0772,0.0834,0.0789,0.079,0.0757,0.0906,0.0825,0.082,0.0903,0.0904,0.0906,0.0843,0,-0.0161,-0.0144,-0.0143,-0.0091,-0.0063,0.0002,0.0069,0.0173,0.0298,0.046,0.0546,0.0698,0.0695,0.0793,0.0819,0.0849,0.0855,0.0846,0.0846,0.0843,0.0767,0.0827,0.0912,0.0846,0.0847,0.0848,0.0848,0,-0.0153,-0.0148,-0.0125,-0.0069,-0.0043,0.0001,0.0134,0.0219,0.0402,0.0523,0.0676,0.0788,0.0882,0.0886,0.0922,0.094,0.0928,0.0914,0.0912,0.0804,0.0772,0.0774,0.0855,0.0855,0.0854,0.0854,0.0853,0,-0.0153,-0.0116,-0.0104,-0.0088,-0.0025,0.0028,0.0104,0.0255,0.0366,0.0612,0.0733,0.0867,0.0982,0.0991,0.0981,0.0995,0.0986,0.0996,0.088,0.0871,0.0919,0.0909,0.1002,0.1002,0.1002,0.1003,0.1003,0,-0.0145,-0.0126,-0.0097,-0.0086,-0.0025,0.0049,0.0173,0.0282,0.0472,0.0599,0.0799,0.0886,0.1033,0.1057,0.1011,0.0945,0.1012,0.0878,0.0867,0.0953,0.0949,0.0919,0.091,0.1,0.1001,0.1001,0.1002,0,-0.0149,-0.0146,-0.0121,-0.006,-0.0033,0.0037,0.0198,0.0294,0.0489,0.0661,0.076,0.0952,0.0991,0.1035,0.1043,0.0985,0.0919,0.0868,0.091,0.0902,0.0757,0.0754,0.0749,0.0746,0.0744,0.0742,0.074,0,-0.0153,-0.0154,-0.0111,-0.0095,-0.0066,0.0044,0.0105,0.0298,0.0397,0.0632,0.0687,0.0846,0.0938,0.0878,0.0905,0.084,0.0818,0.0787,0.0814,0.075,0.074,0.074,0.074,0.0736,0.0735,0.0735,0.0734,0,-0.0169,-0.0163,-0.0151,-0.0125,-0.0074,-0.0004,0.0106,0.0174,0.0383,0.0547,0.0662,0.0743,0.0784,0.0809,0.0808,0.0729,0.0824,0.0761,0.0766,0.079,0.0734,0.0726,0.0729,0.0725,0.0726,0.0727,0.0728,0,-0.0179,-0.0179,-0.0178,-0.0145,-0.0104,-0.0069,0.0006,0.0113,0.0241,0.0504,0.0488,0.0625,0.0751,0.0739,0.0672,0.0675,0.0662,0.0642,0.0653,0.0663,0.0667,0.0584,0.052,0,0,0,0,0,-0.0178,-0.0199,-0.0195,-0.0169,-0.0134,-0.0109,-0.0017,0.0062,0.0229,0.0301,0.043,0.0464,0.0527,0.0549,0.0532,0.0564,0.0615,0.0535,0.0585,0.0677,0.0687,0.0702,0,0,0,0,0,0,-0.0189,-0.02,-0.0214,-0.0204,-0.0189,-0.0145,-0.0099,0.0006,0.0061,0.0236,0.0263,0.0414,0.0451,0.0544,0.0522,0.0529,0.0542,0.0607,0.0605,0.0671,0.068,0.0688,0.0707,0,0,0,0,0]},{"header":{"parameterUnit":"m.s-1","parameterCategory":2,"la1":30.2991,"la2":30.254,"lo1":-89.0895,"lo2":-89.0444,"dy":0.0017,"dx":0.0017,"nx":28,"ny":28,"refTime":"2023-07-18T03:00:00:Z","depth":"4","parameterNumber":3,"parameterNumberName":"V-component_of_CURRENTS"},"data":[0,0,0,0,0,0,0,0,0,0,0,0,0,0,0,0,0,0,0,0,0,0,0,0,0,0,0,0,0,0,0,0,0,0,0,0,0,0,0,0,0,0,0,0,0,0,0,0,0,0,0,0,0,0,0,0,0,0,0.0498,0.0498,0,0.0366,0.0363,0.0361,0.0206,0.0205,0.0204,0.0203,0.0191,0.0192,0.0193,0,0,0,0,0,0,0,0,0,0,0,0,0,0.0368,0.0371,0.0499,0.0498,0.0497,0.0366,0.0363,0.036,0.0207,0.0205,0.0204,0.0202,0.0191,0.0192,0.0193,0,0,0,0,0,0,0,0,0,0,0,0,0,0.0339,0.0373,0.0499,0.0413,0.0405,0.0367,0.0363,0.0359,0.0207,0.0205,0.0203,0.0201,0.019,0.0192,0.0193,0.024,0,0,0.0197,0.0198,0,0,0,0,0,0,0,0,0.0341,0.0342,0.0426,0.0419,0.041,0.0311,0.0313,0.0329,0.0207,0.027,0.0203,0.02,0.0252,0.0248,0.0209,0.0239,0.0239,0.0197,0.0198,0.0199,0.0199,0,0,0,0,0,0,0,0.0343,0.0346,0.0434,0.0426,0.0416,0.0296,0.0291,0.0313,0.0267,0.0264,0.0256,0.026,0.0246,0.0207,0.0208,0.0238,0.0197,0.0198,0.0199,0.02,0.0254,0.0254,0,0,0,0,0,0,0.0399,0.035,0.0439,0.0431,0.0383,0.0302,0.0295,0.0335,0.0263,0.0253,0.0262,0.0254,0.0206,0.0206,0.0207,0.0219,0.0199,0.02,0.0201,0.0253,0.0254,0.0255,0,0,0,0,0,0,0.0397,0.041,0.0444,0.0393,0.0391,0.031,0.0353,0.0334,0.0302,0.0262,0.0251,0.0252,0.0205,0.0205,0.0223,0.0219,0.02,0.0202,0.0252,0.0253,0.0254,0.0269,0,0,0,0,0,0,0.0395,0.0411,0.0469,0.0399,0.0396,0.0427,0.0356,0.0333,0.0313,0.03,0.0251,0.0246,0.0203,0.0221,0.0224,0.0221,0.0203,0.0252,0.0253,0.0254,0.0268,0.0271,0.0273,0,0,0,0,0,0.0391,0.0454,0.0474,0.0485,0.0478,0.0429,0.0414,0.0339,0.0315,0.0302,0.027,0.0248,0.023,0.0224,0.0227,0.0223,0.0251,0.0253,0.0254,0.0267,0.027,0.0273,0,0,0,0,0,0,0.0403,0.0445,0.0463,0.0534,0.0501,0.0407,0.0396,0.0363,0.0322,0.0319,0.0272,0.0266,0.0267,0.0264,0.0258,0.0243,0.0232,0.0235,0.0241,0.0244,0.0247,0.0241,0.0204,0,0,0,0,0,0.0454,0.0517,0.0512,0.056,0.0558,0.0492,0.0472,0.0427,0.0381,0.0357,0.033,0.0305,0.0277,0.0277,0.0257,0.0279,0.026,0.0276,0.0278,0.028,0.0279,0.0227,0.0224,0.0259,0.0259,0.0259,0,0,0.0469,0.0501,0.0536,0.0569,0.0533,0.0524,0.0468,0.0442,0.0435,0.0376,0.0365,0.0322,0.0285,0.027,0.0273,0.027,0.0269,0.0282,0.0284,0.0281,0.0228,0.0224,0.0221,0.026,0.026,0.026,0,0,0.0484,0.0563,0.0605,0.0607,0.0599,0.0554,0.0564,0.0506,0.0484,0.0489,0.0418,0.0373,0.0377,0.0303,0.0279,0.0301,0.028,0.0308,0.0321,0.0271,0.0267,0.0263,0.0267,0.0263,0.0313,0.0313,0.0313,0,0.0499,0.0569,0.0595,0.0623,0.0625,0.058,0.0585,0.0564,0.0518,0.0512,0.05,0.0413,0.0378,0.0315,0.0298,0.0302,0.0295,0.0308,0.0271,0.0267,0.0262,0.0267,0.0263,0.0314,0.0313,0.0313,0.0313,0,0.0543,0.0597,0.0606,0.0648,0.065,0.0643,0.0638,0.0633,0.0617,0.0585,0.0547,0.047,0.0412,0.0383,0.0347,0.0289,0.0304,0.0275,0.0259,0.0259,0.0266,0.0261,0.0315,0.0315,0.0314,0.0314,0,0,0.056,0.0627,0.0636,0.0661,0.0671,0.0669,0.068,0.0662,0.0667,0.0626,0.0608,0.0513,0.0462,0.0429,0.0358,0.0297,0.0257,0.028,0.0277,0.0277,0.0193,0.0175,0.0168,0.0221,0.022,0.0219,0.0221,0,0.0569,0.0628,0.0663,0.0692,0.0704,0.0708,0.0719,0.0715,0.07,0.0684,0.0599,0.0565,0.0488,0.0454,0.0376,0.0274,0.0241,0.0263,0.0199,0.0198,0.0173,0.0159,0.0214,0.0217,0.0216,0.0215,0.0215,0,0.06,0.0632,0.0678,0.0718,0.073,0.0758,0.0773,0.0788,0.0764,0.0763,0.0698,0.0636,0.0528,0.0481,0.0316,0.0338,0.028,0.0208,0.0206,0.0175,0.0168,0.0209,0.0205,0.0206,0.0207,0.0208,0.0208,0,0.0582,0.0644,0.0683,0.0707,0.0745,0.0785,0.081,0.0811,0.0838,0.0825,0.082,0.0692,0.064,0.0512,0.0349,0.0347,0.0185,0.0169,0.011,0.0112,0.0121,0.0125,0.0089,0.0089,0.0089,0.0089,0.0089,0,0.0575,0.061,0.0699,0.0726,0.0779,0.0825,0.0884,0.0892,0.0918,0.0918,0.087,0.0793,0.0643,0.0517,0.0382,0.022,0.0218,0.0111,0.0094,0.0135,0.014,0.012,0.0123,0.0089,0.0089,0.0089,0.0089,0,0.0549,0.0597,0.0651,0.0735,0.0772,0.0831,0.0951,0.0986,0.102,0.1015,0.1017,0.0893,0.0719,0.0574,0.0368,0.0276,0.0118,0.0078,0.0168,0.0157,0.0088,0.0093,0.0031,0.003,0.0029,0.0028,0.0027,0,0.0541,0.0568,0.0676,0.0723,0.0779,0.0887,0.0943,0.1023,0.1044,0.1016,0.0975,0.0864,0.0751,0.0469,0.0309,0.0125,0.0087,0.0069,0.0039,0.0083,0.0074,0.008,0.0086,0.0026,0.0026,0.0026,0.0026,0,0.0513,0.0566,0.0613,0.0716,0.0804,0.0894,0.0978,0.0981,0.1027,0.1076,0.0927,0.08,0.0624,0.0412,0.0311,0.0145,0.0099,0.0059,0.006,0.0032,0.0077,0.007,0.0077,0.0023,0.0023,0.0023,0.0023,0,0.0502,0.0532,0.0609,0.0703,0.0806,0.0853,0.0902,0.0916,0.0945,0.0917,0.0835,0.0685,0.0618,0.0418,0.0262,0.0162,0.0131,0.0111,0.0109,0.0111,0.0116,0.0183,0.0142,0,0,0,0,0,0.049,0.0523,0.0595,0.0669,0.0777,0.0848,0.0898,0.0931,0.0944,0.0847,0.0862,0.0687,0.0488,0.0367,0.0261,0.0229,0.0106,0.0103,0.0081,0.0007,0.001,-0.0003,0,0,0,0,0,0,0.0471,0.0532,0.0569,0.0643,0.0708,0.0805,0.084,0.0842,0.0777,0.0779,0.0651,0.0685,0.0463,0.0563,0.0268,0.0237,0.021,0.0037,0.0035,0.0005,0.0008,0.001,-0.0002,0,0,0,0,0]}]]